星链-34771 (STARLINK-34771)

导读 | 豆包AI

STARLINK-34771是美国SpaceX公司星链星座的一员,于2025年8月4日发射升空。星链计划旨在构建全球卫星互联网星座,为全球提供高速低延迟网络服务,该卫星的入轨进一步扩充了星链星座的规模,提升星座覆盖能力与服务容量,推动全球卫星互联网络的建设进程。

基本信息
目录编号:
65078
目录名称:
STARLINK-34771
国际标识:
2025-167A
轨道中心:
EARTH
卫星名称:
星链-34771
卫星全名:
星链-34771 (STARLINK-34771)
卫星状态:
在轨 (已飞行222 天)
发射日期:
2025-08-04 UTC
国别 :
美国 (US)
星等 :
--
轨道信息
数据来源 国际轨道数据
星历时间: 2026-03-14T07:37:38+0800
14小时前
查看轨道信息
半长轴: 6853.29km
偏心率: 0.000153
轨道倾角: 53.163°
近地点辐角 139.355°
升交点赤经 4.182°
平近点角 220.757°
近地点: 474.104km
远地点: 476.202km
周期: 94.104分钟
每日圈数: 15.302208
详细信息
固有亮度:
5
最大亮度:
2.5
卫星平台:
Starlink V1.0
覆盖范围:
全球
运营商:
太空探索技术公司
运营商所在国:
美国
制造商(研发单位):
太空探索技术公司
制造商所在国:
美国
使用方式:
暂无
卫星简介
Starlink 计划是 SpaceX 推出的全球卫星互联网项目,通过发射低轨道卫星,为全球尤其是偏远地区提供高速、低延迟的互联网服务。自 2019 年起,Starlink 已部署数千颗卫星,旨在缩小全球数字鸿沟,推动互联网普及。该项目还为军事、航空等行业提供通信支持,带来广泛经济效益。
2D轨道图
3D轨道图
轨道高度分析图
轨道倾角分析图
轨道综合分析图
查看轨道综合分析图